Hourly Data Report for October 01, 2004

SHERBROOKE A
QUEBEC

45°26'00.000" N
71°41'00.000" W
241.40 m
7028124
71610
YSC

Download Data

Hourly Data (October 2004)
Hourly Data Report for October 1, 2004
TIME
LST
Temp Definition
°C
Dew Point Definition
°C
Rel Hum Definition
%
Precip. Amount Definition
mm

Wind Dir Definition
10's deg

Wind Spd Definition
km/h
Visibility Definition
km
Stn Press Definition
kPa
Hmdx Definition


Wind Chill Definition


Weather Definition


00:00 7.6 7.0 96   8 4 15.0 99.02      
01:00 7.7 6.9 95   10 4 15.0 99.07      
02:00 6.8 6.1 95     0 15.0 99.08      
03:00 5.9 5.2 95     0 12.9 99.14      
04:00 3.7 3.0 95   14 6 0.6 99.16      
05:00 3.0 2.2 94   11 4 2.7 99.22      
06:00 3.8 3.2 96   8 4 15.0 99.29      
07:00 5.7 4.8 94   9 4 24.1 99.35     Mainly Clear
08:00 9.2 7.5 89     0 24.1 99.39     Mainly Clear
09:00 12.8 9.4 80   12 4 24.1 99.39     Mainly Clear
10:00 15.4 10.0 70   25 4 24.1 99.40     Mainly Clear
11:00 16.5 9.8 65   30 6 24.1 99.40     Mainly Clear
12:00 17.7 9.1 57   18 6 24.1 99.38     Mainly Clear
13:00 18.3 8.8 54   22 6 24.1 99.36     Mainly Clear
14:00 18.4 9.0 54   36 6 24.1 99.33     Mainly Clear
15:00 19.0 8.7 51   21 7 24.1 99.30     Mainly Clear
16:00 19.1 9.5 54     0 24.1 99.31     Clear
17:00 17.0 10.5 66     0 15.0 99.35      
18:00 11.1 8.8 86   14 6 15.0 99.37      
19:00 10.4 8.3 87   10 6 15.0 99.39      
20:00 10.4 8.6 89   10 9 15.0 99.41      
21:00 9.2 7.8 91   9 6 15.0 99.39      
22:00 8.6 7.3 92   8 9 15.0 99.38      
23:00 7.8 6.7 93   8 9 15.0 99.38      

Notes on Data Quality.

Legend

  • E = Estimated
  • M = Missing
  • NA = Not Available*
  • [empty] = Indicates an unobserved value
Date modified: